Regional Weather Roundup
Issued by NWS New Orleans/Baton Rouge, LA

Home | Current Version | Previous Version | Text Only | Print | Product List | Glossary On
Versions: 1 2 3 4 5 6 7 8 9 10 11 12 13 14 15 16 17 18 19 20 21 22 23 24 25 26 27 28 29 30 31 32 33 34 35 36 37 38 39 40 41 42 43 44 45 46 47 48 49 50
347
ASUS44 KLIX 181805
RWRLIX
NEW ORLEANS REGIONAL WEATHER ROUNDUP
NATIONAL WEATHER SERVICE NEW ORLEANS LA
100 PM CDT FRI APR 18 2014

NOTE: "FAIR" INDICATES FEW OR NO CLOUDS BELOW 12,000 FEET WITH NO
      SIGNIFICANT WEATHER AND/OR OBSTRUCTIONS TO VISIBILITY.
      SKY/WX - SKY CONDITION AND SIGNIFICANT WEATHER.
      TMP - AIR TEMPERATURE.     DP    - DEWPOINT TEMPERATURE.
      RH  - RELATIVE HUMIDITY.   PRES  - PRESSURE.
      HI  - HEAT INDEX.          WCI   - WIND CHILL INDEX.

*  THESE STATIONS ARE NOT NWS OR FAA STATIONS AND ARE NOT UNDER
   NWS QUALITY CONTROL.

LAZ038-040-048-061>063-065>067-069-181900-
SOUTHEAST LOUISIANA

CITY           SKY/WX    TMP DP  RH WIND       PRES   REMARKS
N.O. AUDUBON     N/A     73 N/A N/A MISG        N/A
6HR MIN TEMP:  61; 6HR MAX TEMP:  73;

N.O. INTL ARPT MOSUNNY   72  60  66 N16G24    30.08F
6HR MIN TEMP:  61; 6HR MAX TEMP:  72; 6HR PCP: TRACE;

N.O. LAKEFRONT PTSUNNY   71  61  70 N15       30.09S
6HR MIN TEMP:  62; 6HR MAX TEMP:  71; 6HR PCP:  0.01;

N.O. DOWNTOWN* MOCLDY    72  57  60 N12G20    30.08F
6HR MIN TEMP:  61; 6HR MAX TEMP:  72;

SLIDELL        CLOUDY    70  59  68 N15       30.08F
6HR MIN TEMP:  61; 6HR MAX TEMP:  70; 6HR PCP: TRACE;

BATON ROUGE    MOSUNNY   78  57  48 VRB7      30.08F
6HR MIN TEMP:  61; 6HR MAX TEMP:  78;

BOOTHVILLE     CLOUDY    64  59  83 N12G21    30.05F
6HR MIN TEMP:  61; 6HR MAX TEMP:  66;

BELLE CHASSE   PTSUNNY   72  58  61 N10G20    30.06F
6HR MIN TEMP:  62; 6HR MAX TEMP:  73;

BOGALUSA*        N/A     68  58  70 N9G18     30.12F
6HR MIN TEMP:  62; 6HR MAX TEMP:  69;

GALLIANO*      MOCLDY    71  61  69 N16G24    30.06F
6HR MIN TEMP:  62; 6HR MAX TEMP:  73; 6HR PCP:  0.01;

NEW ROADS*       N/A     73  60  63 W8        30.10F
6HR MIN TEMP:  57; 6HR MAX TEMP:  73;

GONZALES*        N/A     75  60  59 NW8       30.07F
6HR MIN TEMP:  60; 6HR MAX TEMP:  75;

HAMMOND*       MOSUNNY   77  55  47 NE9G20    30.10S
HOUMA*         MOSUNNY   75  57  53 NE15      30.07F
PORT FOURCHON* MOCLDY    70  63  78 NE14G22   30.07F

$$

MSZ070-080>082-181900-
SOUTHERN MISSISSIPPI

CITY           SKY/WX    TMP DP  RH WIND       PRES   REMARKS
MCCOMB         PTSUNNY   69  57  65 NE14G20   30.11F
6HR MIN TEMP:  59; 6HR MAX TEMP:  70;

GULFPORT       CLOUDY    70  59  68 N16G23    30.06S
6HR MIN TEMP:  62; 6HR MAX TEMP:  70; 6HR PCP:  0.10;

BILOXI         CLOUDY    67  60  77 N16G22    30.05F
6HR MIN TEMP:  60; 6HR MAX TEMP:  68; 6HR PCP:  0.01;

PASCAGOULA     CLOUDY    66  60  81 NE15G21   30.04F
6HR MIN TEMP:  60; 6HR MAX TEMP:  66; 6HR PCP:  0.24;

STENNIS ARPT*    N/A     64  57  77 N17G23    30.08F

$$

COASTAL OBSERVATIONS
LAKE AND NEARSHORE STATIONS

STATION/POSITION TIME  TEMP    WIND        PRES    WAVE
                       AIR SEA DIR/SP/G            HT/PER
                 (UTC) (F)     (DEG/KT/KT) (MB)    (FT/S)
PASCAGOULA       1800   64      30/ 15/ 21 1016.6
WAVELAND YACHT   1800   65 67  360/ 17/ 19 1017.1
GRAND ISLE       1800   66 66   20/ 15/ 20 1018.3
SOUTHWEST PASS   1800   70 58   10/ 15/ 19 1017.4
NEW CANAL        1800   66 64   20/ 11/ 12 1018.9
SHELL BEACH      1800   64 61   10/ 15/ 18 1018.0

OFFSHORE STATIONS

STATION/POSITION TIME  TEMP    WIND        PRES    WAVE
                       AIR SEA DIR/SP/G            HT/PER
                 (UTC) (F)     (DEG/KT/KT) (MB)    (FT/S)
64 S DAUPHIN ISL 1720   64 71   10/ 25/ 29 1015.5

$$




USA.gov is the U.S. government's official web portal to all federal, state and local government web resources and services.